Weather History for Richmond, KY

Change the Weather History Date:

Monday, January 16, 2012

  Actual Average (KLOZ) Record (KLOZ)
Temperature  
Mean Temperature 42 °F 35 °F  
Max Temperature 51 °F 45 °F 67 °F (1974)
Min Temperature 33 °F 26 °F -9 °F (1977)
Degree Days  
Heating Degree Days 23 30  
Month to date heating degree days 476  
Since 1 July heating degree days 2128  
Cooling Degree Days 0 0  
Month to date cooling degree days 0  
Year to date cooling degree days 0  
Moisture  
Dew Point 26 °F    
Average Humidity 47    
Maximum Humidity 70    
Minimum Humidity 35    
Precipitation  
Precipitation 0.00 in 0.12 in 0.52 in (2013)
Month to date precipitation 1.83  
Year to date precipitation 1.83  
Sea Level Pressure  
Sea Level Pressure 30.17 in    
Wind  
Wind Speed 14 mph (SSW)    
Max Wind Speed 26 mph    
Max Gust Speed 31 mph    
Visibility 10 miles    
Events      
T = Trace of Precipitation, MM = Missing Value Source: NWS Daily Summary

Daily Weather History Graph

Daily Weather History Graph

Search for Another Location

Airport:

Trip Planner

Search our weather history database for the weather conditions in past years. The results will help you decide how hot, cold, wet, or windy it might be!

Date:

Astronomy

Jan. 16, 2012 Rise Set
Actual Time 7:51 AM EST 5:43 PM EST
Civil Twilight 7:22 AM EST 6:11 PM EST
Nautical Twilight 6:50 AM EST 6:44 PM EST
Astronomical Twilight 6:18 AM EST 7:15 PM EST
Moon 1:01 AM EST (1/16) 11:54 AM EST (1/16)
Length of Visible Light 10h 49m
Length of Day
9h 52m
Waning Gibbous, 46% of the Moon is Illuminated
Jan 16
Waning Gibbous
Jan 23
New
Jan 30
First Quarter
Feb 7
Full
Feb 14
Last Quarter

Hourly Weather History & Observations

Time (EST) Temp. Windchill Dew Point Humidity Pressure Visibility Wind Dir Wind Speed Gust Speed Precip Events Conditions
12:15 AM 33.8 °F 27.0 °F 24.8 °F 70% 30.30 in 10.0 mi South 8.1 mph - N/A   Clear
12:35 AM 35.6 °F 28.6 °F 24.8 °F 65% 30.30 in 10.0 mi South 9.2 mph - N/A   Clear
12:55 AM 35.6 °F 27.5 °F 23.0 °F 60% 30.29 in 10.0 mi South 11.5 mph - N/A   Clear
1:15 AM 35.6 °F 27.5 °F 23.0 °F 60% 30.28 in 10.0 mi South 11.5 mph - N/A   Clear
1:55 AM 35.6 °F 27.1 °F 23.0 °F 60% 30.27 in 10.0 mi South 12.7 mph 18.4 mph N/A   Clear
2:15 AM 35.6 °F 27.1 °F 23.0 °F 60% 30.27 in 10.0 mi South 12.7 mph 20.7 mph N/A   Clear
2:35 AM 35.6 °F 27.5 °F 23.0 °F 60% 30.26 in 10.0 mi South 11.5 mph 17.3 mph N/A   Clear
2:55 AM 37.4 °F 29.3 °F 21.2 °F 52% 30.27 in 10.0 mi South 12.7 mph 19.6 mph N/A   Clear
3:15 AM 37.4 °F 29.8 °F 23.0 °F 56% 30.26 in 10.0 mi South 11.5 mph 18.4 mph N/A   Clear
3:35 AM 37.4 °F 29.8 °F 23.0 °F 56% 30.26 in 10.0 mi South 11.5 mph 16.1 mph N/A   Clear
3:55 AM 37.4 °F 28.5 °F 23.0 °F 56% 30.26 in 10.0 mi South 15.0 mph 20.7 mph N/A   Clear
4:15 AM 37.4 °F 29.8 °F 23.0 °F 56% 30.25 in 10.0 mi South 11.5 mph 19.6 mph N/A   Clear
4:35 AM 39.2 °F 30.8 °F 21.2 °F 49% 30.25 in 10.0 mi South 15.0 mph 20.7 mph N/A   Clear
4:55 AM 39.2 °F 30.8 °F 21.2 °F 49% 30.25 in 10.0 mi South 15.0 mph 21.9 mph N/A   Clear
5:15 AM 37.4 °F 28.5 °F 23.0 °F 56% 30.25 in 10.0 mi South 15.0 mph 21.9 mph N/A   Clear
5:35 AM 39.2 °F 31.2 °F 21.2 °F 49% 30.25 in 10.0 mi South 13.8 mph 19.6 mph N/A   Clear
5:55 AM 39.2 °F 31.6 °F 21.2 °F 49% 30.25 in 10.0 mi South 12.7 mph 19.6 mph N/A   Clear
6:15 AM 39.2 °F 31.2 °F 23.0 °F 52% 30.24 in 10.0 mi South 13.8 mph 21.9 mph N/A   Scattered Clouds
6:35 AM 41.0 °F 32.5 °F 21.2 °F 45% 30.23 in 10.0 mi South 17.3 mph 25.3 mph N/A   Mostly Cloudy
7:15 AM 41.0 °F 33.9 °F 21.2 °F 45% 30.24 in 10.0 mi South 12.7 mph 17.3 mph N/A   Clear
7:35 AM 41.0 °F 33.5 °F 21.2 °F 45% 30.25 in 10.0 mi SSW 13.8 mph 18.4 mph N/A   Clear
7:55 AM 41.0 °F 32.8 °F 21.2 °F 45% 30.23 in 10.0 mi South 16.1 mph 21.9 mph N/A   Clear
8:15 AM 41.0 °F 33.5 °F 21.2 °F 45% 30.23 in 10.0 mi South 13.8 mph 19.6 mph N/A   Clear
8:35 AM 42.8 °F 36.2 °F 21.2 °F 42% 30.24 in 10.0 mi SSW 12.7 mph 21.9 mph N/A   Clear
8:55 AM 44.6 °F 36.9 °F 21.2 °F 39% 30.23 in 10.0 mi South 18.4 mph 26.5 mph N/A   Clear
9:35 AM 46.4 °F 39.0 °F 23.0 °F 40% 30.23 in 10.0 mi South 19.6 mph 26.5 mph N/A   Clear
9:55 AM 46.4 °F 38.7 °F 23.0 °F 40% 30.24 in 10.0 mi SSW 20.7 mph 28.8 mph N/A   Clear
10:15 AM 46.4 °F 39.5 °F 23.0 °F 40% 30.23 in 10.0 mi South 17.3 mph 27.6 mph N/A   Scattered Clouds
10:35 AM 48.2 °F - 24.8 °F 40% 30.23 in 10.0 mi SSW 18.4 mph 31.1 mph N/A   Scattered Clouds
10:55 AM 50.0 °F - 24.8 °F 37% 30.22 in 10.0 mi SSW 20.7 mph 28.8 mph N/A   Scattered Clouds
11:15 AM 50.0 °F - 26.6 °F 40% 30.22 in 10.0 mi SSW 16.1 mph 27.6 mph N/A   Overcast
11:35 AM 50.0 °F - 26.6 °F 40% 30.20 in 10.0 mi SSW 26.5 mph 31.1 mph N/A   Overcast
11:55 AM 50.0 °F - 28.4 °F 43% 30.19 in 10.0 mi SSW 17.3 mph 27.6 mph N/A   Overcast
12:35 PM 50.0 °F - 28.4 °F 43% 30.16 in 10.0 mi South 15.0 mph 26.5 mph N/A   Overcast
12:55 PM 50.0 °F - 30.2 °F 47% 30.14 in 10.0 mi South 19.6 mph 26.5 mph N/A   Overcast
1:15 PM 51.8 °F - 26.6 °F 38% 30.13 in 10.0 mi SSW 21.9 mph 29.9 mph N/A   Overcast
1:35 PM 51.8 °F - 24.8 °F 35% 30.13 in 10.0 mi SSW 19.6 mph 28.8 mph N/A   Overcast
1:55 PM 51.8 °F - 26.6 °F 38% 30.11 in 10.0 mi SSW 19.6 mph 26.5 mph N/A   Overcast
2:15 PM 51.8 °F - 26.6 °F 38% 30.11 in 10.0 mi South 20.7 mph 27.6 mph N/A   Overcast
2:35 PM 50.0 °F - 28.4 °F 43% 30.09 in 10.0 mi South 17.3 mph 26.5 mph N/A   Overcast
2:55 PM 51.8 °F - 28.4 °F 41% 30.08 in 10.0 mi South 17.3 mph 27.6 mph N/A   Overcast
3:15 PM 51.8 °F - 28.4 °F 41% 30.07 in 10.0 mi South 16.1 mph 25.3 mph N/A   Overcast
3:35 PM 51.8 °F - 28.4 °F 41% 30.07 in 10.0 mi SSW 15.0 mph 28.8 mph N/A   Overcast
3:55 PM 50.0 °F - 28.4 °F 43% 30.07 in 10.0 mi SSW 19.6 mph 29.9 mph N/A   Overcast
4:15 PM 50.0 °F - 28.4 °F 43% 30.07 in 10.0 mi South 20.7 mph 29.9 mph N/A   Overcast
4:35 PM 50.0 °F - 28.4 °F 43% 30.07 in 10.0 mi SSW 17.3 mph 25.3 mph N/A   Overcast
4:55 PM 50.0 °F - 28.4 °F 43% 30.06 in 10.0 mi South 17.3 mph 27.6 mph N/A   Overcast
5:15 PM 50.0 °F - 28.4 °F 43% 30.06 in 10.0 mi SSW 19.6 mph 27.6 mph N/A   Overcast
5:35 PM 51.8 °F - 28.4 °F 41% 30.05 in 10.0 mi South 16.1 mph - N/A   Overcast
5:55 PM 51.8 °F - 30.2 °F 44% 30.05 in 10.0 mi South 16.1 mph 24.2 mph N/A   Overcast
6:15 PM 51.8 °F - 30.2 °F 44% 30.05 in 10.0 mi South 17.3 mph 24.2 mph N/A   Overcast
6:35 PM 51.8 °F - 30.2 °F 44% 30.05 in 10.0 mi South 18.4 mph 25.3 mph N/A   Overcast
6:55 PM 51.8 °F - 32.0 °F 47% 30.04 in 10.0 mi South 18.4 mph 26.5 mph N/A   Overcast
7:35 PM 51.8 °F - 33.8 °F 50% 30.05 in 10.0 mi SSW 16.1 mph 24.2 mph N/A   Overcast
7:55 PM 51.8 °F - 32.0 °F 47% 30.04 in 10.0 mi SSW 16.1 mph 23.0 mph N/A   Overcast
8:15 PM 51.8 °F - 32.0 °F 47% 30.04 in 10.0 mi SSW 15.0 mph 23.0 mph N/A   Overcast
8:35 PM 51.8 °F - 32.0 °F 47% 30.03 in 10.0 mi SSW 12.7 mph 25.3 mph N/A   Overcast
8:55 PM 51.8 °F - 32.0 °F 47% 30.04 in 10.0 mi SSW 20.7 mph 27.6 mph N/A   Overcast
9:15 PM 51.8 °F - 32.0 °F 47% 30.03 in 10.0 mi South 19.6 mph 27.6 mph N/A   Overcast
9:35 PM 51.8 °F - 32.0 °F 47% 30.04 in 10.0 mi South 18.4 mph 28.8 mph N/A   Overcast
9:55 PM 51.8 °F - 32.0 °F 47% 30.04 in 10.0 mi SSW 20.7 mph 26.5 mph N/A   Overcast
10:15 PM 51.8 °F - 32.0 °F 47% 30.03 in 10.0 mi South 18.4 mph 26.5 mph N/A   Overcast
10:35 PM 51.8 °F - 32.0 °F 47% 30.03 in 10.0 mi South 16.1 mph 25.3 mph N/A   Overcast
10:55 PM 51.8 °F - 32.0 °F 47% 30.03 in 10.0 mi South 16.1 mph 28.8 mph N/A   Overcast
11:15 PM 51.8 °F - 32.0 °F 47% 30.03 in 10.0 mi South 16.1 mph 23.0 mph N/A   Overcast
11:35 PM 53.6 °F - 32.0 °F 44% 30.03 in 10.0 mi SSW 19.6 mph 25.3 mph N/A   Overcast
11:55 PM 53.6 °F - 32.0 °F 44% 30.02 in 10.0 mi SSW 17.3 mph 26.5 mph N/A   Overcast